STARLINK-36276

Last updated on Mon Mar 23 2026 00:02:07 GMT+0000 (Coordinated Universal Time)

1 67852U 26034C 26081.16668981 -.01897730 00000+0 -24524-1 0 9999 2 67852 53.1590 149.1366 0001042 70.1695 29.4024 15.61572851 5869
UTC large
Height (km)
Speed (km/s)
/
Latitude / Longitude
Inclination (degrees)
Orbital Period (minutes)
Azimuth
Elevation
Range (km)
Doppler Factor

Next 0 passes for location: London (51.5072 / 0.1276)

Sorry there are no passes over London.